Liberal, KS

4:10 PM CDT on April 26, 2017 (GMT -0500)
Liberal Municipal

Weather History for KLBL - May, 2014

Change the Weather History Date:

Wednesday, May 21, 2014

  Actual Average Record
Temperature  
Mean Temperature 71 °F -  
Max Temperature 91 °F 79 °F 99 °F (1948)
Min Temperature 51 °F 53 °F 39 °F (1945)
Cooling Degree Days 6    
Growing Degree Days 21 (Base 50)    
Moisture  
Dew Point 42 °F    
Average Humidity 34    
Maximum Humidity 67    
Minimum Humidity 15    
Precipitation  
Precipitation 0.00 in - - ()
Sea Level Pressure  
Sea Level Pressure 29.94 in    
Wind  
Wind Speed 9 mph (SSW)    
Max Wind Speed 30 mph    
Max Gust Speed 40 mph    
Visibility 10 miles    
Events      
Averages and records for this station are not official NWS values.
T = Trace of Precipitation, MM = Missing Value Source: NWS Daily Summary

Daily Weather History Graph

Daily Weather History Graph

Search for Another Location

Airport or City:

Trip Planner

Search our weather history database for the weather conditions in past years. The results will help you decide how hot, cold, wet, or windy it might be!

Date:

Astronomy

May. 21, 2014 Rise Set
Actual Time 6:31 AM CDT 8:50 PM CDT
Civil Twilight 6:01 AM CDT 9:19 PM CDT
Nautical Twilight 5:25 AM CDT 9:56 PM CDT
Astronomical Twilight 4:45 AM CDT 10:35 PM CDT
Moon 2:04 AM CDT (5/21) 1:43 PM CDT (5/21)
Length of Visible Light 15h 17m
Length of Day
14h 18m
Waning Gibbous, 48% of the Moon is Illuminated
May 21
Waning Gibbous
May 28
New
Jun 5
First Quarter
Jun 12
Full
Jun 19
Last Quarter

Hourly Weather History & Observations

Time (CDT) Temp. Heat Index Dew Point Humidity Pressure Visibility Wind Dir Wind Speed Gust Speed Precip Events Conditions
12:15 AM 73.4 °F - 32.0 °F 22% 29.85 in 10.0 mi ESE 9.2 mph - N/A   Clear
12:35 AM 71.6 °F - 32.0 °F 23% 29.85 in 10.0 mi ESE 6.9 mph - N/A   Clear
12:55 AM 69.8 °F - 30.2 °F 23% 29.84 in 10.0 mi ESE 6.9 mph - N/A   Clear
1:15 AM 69.8 °F - 30.2 °F 23% 29.83 in 10.0 mi ESE 5.8 mph - N/A   Clear
1:35 AM 69.8 °F - 32.0 °F 25% 29.83 in 10.0 mi NE 6.9 mph - N/A   Clear
1:55 AM 69.8 °F - 33.8 °F 27% 29.84 in 10.0 mi NNE 10.4 mph - N/A   Clear
2:15 AM 69.8 °F - 33.8 °F 27% 29.85 in 10.0 mi East 3.5 mph - N/A   Clear
2:35 AM 62.6 °F - 30.2 °F 30% 29.84 in 10.0 mi Calm Calm - N/A   Clear
2:55 AM 59.0 °F - 30.2 °F 34% 29.84 in 10.0 mi WNW 8.1 mph - N/A   Clear
3:15 AM 55.4 °F - 35.6 °F 47% 29.83 in 10.0 mi WNW 5.8 mph - N/A   Clear
3:35 AM 55.4 °F - 35.6 °F 47% 29.84 in 10.0 mi Calm Calm - N/A   Clear
3:55 AM 53.6 °F - 35.6 °F 51% 29.84 in 10.0 mi Calm Calm - N/A   Clear
4:15 AM 53.6 °F - 35.6 °F 51% 29.84 in 10.0 mi SE 5.8 mph - N/A   Clear
4:35 AM 53.6 °F - 35.6 °F 51% 29.84 in 10.0 mi SW 6.9 mph - N/A   Clear
4:55 AM 53.6 °F - 33.8 °F 47% 29.85 in 8.0 mi SW 9.2 mph - N/A   Clear
5:15 AM 53.6 °F - 33.8 °F 47% 29.86 in 10.0 mi SSW 3.5 mph - N/A   Clear
5:35 AM 51.8 °F - 35.6 °F 54% 29.87 in 10.0 mi WNW 6.9 mph - N/A   Clear
5:55 AM 53.6 °F - 35.6 °F 51% 29.88 in 10.0 mi West 6.9 mph - N/A   Clear
6:15 AM 51.8 °F - 35.6 °F 54% 29.88 in 10.0 mi NW 5.8 mph - N/A   Clear
6:35 AM 51.8 °F - 35.6 °F 54% 29.90 in 10.0 mi WNW 6.9 mph - N/A   Clear
7:15 AM 51.8 °F - 39.2 °F 62% 29.91 in 10.0 mi West 8.1 mph - N/A   Clear
7:35 AM 53.6 °F - 42.8 °F 67% 29.92 in 10.0 mi SSW 5.8 mph - N/A   Clear
7:55 AM 59.0 °F - 44.6 °F 59% 29.92 in 10.0 mi SW 9.2 mph - N/A   Clear
8:15 AM 62.6 °F - 42.8 °F 48% 29.93 in 10.0 mi WSW 10.4 mph - N/A   Clear
8:35 AM 66.2 °F - 39.2 °F 37% 29.96 in 10.0 mi NW 19.6 mph 23.0 mph N/A   Clear
8:55 AM 66.2 °F - 46.4 °F 49% 29.95 in 10.0 mi WNW 9.2 mph 21.9 mph N/A   Clear
10:35 AM 73.4 °F - 55.4 °F 53% 29.99 in 10.0 mi North 15.0 mph 20.7 mph N/A   Clear
10:55 AM 73.4 °F - 55.4 °F 53% 29.99 in 10.0 mi North 12.7 mph 19.6 mph N/A   Clear
11:15 AM 75.2 °F - 55.4 °F 50% 29.99 in 10.0 mi North 15.0 mph - N/A   Clear
11:35 AM 75.2 °F - 55.4 °F 50% 29.99 in 10.0 mi North 15.0 mph 20.7 mph N/A   Clear
11:55 AM 75.2 °F - 53.6 °F 47% 30.00 in 10.0 mi North 13.8 mph - N/A   Clear
12:15 PM 78.8 °F - 53.6 °F 42% 30.00 in 10.0 mi North 17.3 mph 23.0 mph N/A   Clear
12:35 PM 80.6 °F 80.3 °F 53.6 °F 39% 30.01 in 10.0 mi North 10.4 mph - N/A   Clear
1:15 PM 82.4 °F 81.4 °F 53.6 °F 37% 29.99 in 10.0 mi NNE 16.1 mph 21.9 mph N/A   Clear
1:35 PM 84.2 °F 82.8 °F 53.6 °F 35% 29.99 in 10.0 mi NE 15.0 mph 18.4 mph N/A   Clear
1:55 PM 84.2 °F 82.8 °F 53.6 °F 35% 29.98 in 10.0 mi East 11.5 mph 16.1 mph N/A   Clear
2:15 PM 86.0 °F - 51.8 °F 31% 29.97 in 10.0 mi ENE 15.0 mph 18.4 mph N/A   Clear
2:35 PM 87.8 °F - 51.8 °F 29% 29.99 in 10.0 mi SE 10.4 mph - N/A   Clear
2:55 PM 89.6 °F - 48.2 °F 24% 29.98 in 10.0 mi SSE 11.5 mph 18.4 mph N/A   Clear
3:15 PM 89.6 °F - 48.2 °F 24% 29.98 in 10.0 mi East 8.1 mph 16.1 mph N/A   Clear
3:35 PM 91.4 °F - 48.2 °F 23% 29.98 in 10.0 mi SSE 11.5 mph 16.1 mph N/A   Clear
3:55 PM 91.4 °F - 46.4 °F 21% 29.98 in 10.0 mi SSE 11.5 mph 17.3 mph N/A   Clear
4:15 PM 91.4 °F - 48.2 °F 23% 29.98 in 10.0 mi South 8.1 mph 20.7 mph N/A   Clear
4:35 PM 91.4 °F - 46.4 °F 21% 29.98 in 10.0 mi South 12.7 mph 19.6 mph N/A   Clear
4:55 PM 91.4 °F - 46.4 °F 21% 29.98 in 10.0 mi South 12.7 mph 19.6 mph N/A   Clear
5:15 PM 89.6 °F - 46.4 °F 22% 29.99 in 10.0 mi South 16.1 mph 23.0 mph N/A   Clear
5:35 PM 89.6 °F - 42.8 °F 20% 29.98 in 10.0 mi SSW 12.7 mph 19.6 mph N/A   Clear
5:55 PM 89.6 °F - 35.6 °F 15% 29.96 in 10.0 mi NNW 3.5 mph 19.6 mph N/A   Clear
6:15 PM 89.6 °F - 35.6 °F 15% 29.96 in 10.0 mi Calm Calm - N/A   Clear
6:35 PM 89.6 °F - 35.6 °F 15% 29.96 in 10.0 mi Calm Calm - N/A   Clear
6:55 PM 89.6 °F - 35.6 °F 15% 29.95 in 10.0 mi SSW 4.6 mph - N/A   Clear
7:15 PM 87.8 °F - 35.6 °F 16% 29.95 in 10.0 mi South 8.1 mph - N/A   Clear
7:35 PM 87.8 °F - 37.4 °F 17% 29.95 in 10.0 mi SW 4.6 mph - N/A   Clear
7:55 PM 86.0 °F - 39.2 °F 19% 29.95 in 10.0 mi SSW 3.5 mph - N/A   Clear
8:15 PM 84.2 °F - 39.2 °F 20% 29.96 in 10.0 mi SSW 4.6 mph - N/A   Clear
8:35 PM 82.4 °F - 42.8 °F 25% 29.96 in 10.0 mi SW 5.8 mph - N/A   Clear
8:55 PM 78.8 °F - 39.2 °F 24% 29.98 in 10.0 mi SSW 4.6 mph - N/A   Clear
9:15 PM 77.0 °F - 39.2 °F 26% 30.01 in 10.0 mi South 15.0 mph 20.7 mph N/A   Scattered Clouds
9:35 PM 80.6 °F - 39.2 °F 23% 30.01 in 10.0 mi South 9.2 mph - N/A   Partly Cloudy
9:55 PM 78.8 °F - 39.2 °F 24% 30.02 in 10.0 mi SSW 9.2 mph - N/A   Scattered Clouds
10:15 PM 77.0 °F - 42.8 °F 29% 30.06 in 10.0 mi South 17.3 mph 28.8 mph N/A   Mostly Cloudy
10:35 PM 75.2 °F - 42.8 °F 31% 30.06 in 10.0 mi South 18.4 mph 26.5 mph N/A   Mostly Cloudy
10:55 PM 75.2 °F - 42.8 °F 31% 30.07 in 10.0 mi SSW 24.2 mph 33.4 mph N/A   Mostly Cloudy
11:15 PM 75.2 °F - 46.4 °F 36% 30.07 in 8.0 mi SW 29.9 mph 40.3 mph N/A   Mostly Cloudy
11:35 PM 73.4 °F - 46.4 °F 38% 30.06 in 10.0 mi SW 24.2 mph 35.7 mph N/A   Scattered Clouds
11:55 PM 71.6 °F - 46.4 °F 41% 30.05 in 10.0 mi SW 18.4 mph 27.6 mph N/A   Clear